This demonstration page uses our WeatherBlox Daily Observations layout. Learn more.

Left ArrowRight Arrow

41.12389, -100.76542

Hourly Observations for November 29, 2016

Temp ( °F °C ) Dew Point ( °F °C ) Humidity (%) Winds ( mph kmh ) Pressure ( in mb ) Visibility ( mi km ) Precip ( " mm )
12:53 am 00:53 Clear 32 0 24 -4.4 73 73 W 12 19 29.36 994 10 16 0.00 0.00
1:53 am 01:53 Clear 34 1.1 23 -5 64 64 W 15 24 29.37 995 10 16 0.00 0.00
2:53 am 02:53 Mostly Cloudy 35 1.7 23 -5 61 61 W 18 30 29.39 995 10 16 0.00 0.00
3:53 am 03:53 Cloudy 36 2.2 25 -3.9 64 64 WNW 18 30 29.41 996 10 16 0.00 0.00
4:53 am 04:53 Clear 32 0 22 -5.6 66 66 WNW 20 31 29.44 997 10 16 0.00 0.00
5:53 am 05:53 Partly Cloudy 30 -1.1 22 -5.6 72 72 WNW 13 20 29.48 998 10 16 0.00 0.00
6:28 am 06:28 Cloudy 30 -1 21 -6 69 69 WNW 12 19 29.59 1002 10 16 0.00 0.00
6:53 am 06:53 Cloudy 31 -0.6 22 -5.6 69 69 NW 10 17 29.51 999 10 16 0.00 0.00
7:43 am 07:43 Cloudy 32 0 23 -5 69 69 NW 12 19 29.62 1003 10 16 0.00 0.00
7:53 am 07:53 Cloudy 31 -0.6 23 -5 72 72 WNW 10 17 29.54 1000 10 16 0.00 0.00
8:53 am 08:53 Mostly Cloudy 33 0.6 24 -4.4 70 70 WNW 13 20 29.57 1001 10 16 0.00 0.00
9:15 am 09:15 Mostly Cloudy with Light Wintry Mix 34 1.1 24 -4.4 67 67 NNW 16 26 29.65 1004 10 16 0.00 0.03
9:30 am 09:30 Cloudy 34 1 21 -6 60 60 NNW 14 22 29.65 1004 10 16 0.00 0.00
9:53 am 09:53 Cloudy 34 1.1 18 -7.8 52 52 NW 20 31 29.60 1003 10 16 0.00 0.03
10:53 am 10:53 Windy with Snow Likely 35 1.7 21 -6.1 57 57 NW 22 35 29.64 1004 9 14 0.00 0.03
11:53 am 11:53 Cloudy with Light Rain 36 2.2 22 -5.6 57 57 NW 24 39 29.65 1004 10 16 0.00 0.03
12:53 pm 12:53 Cloudy 38 3.3 19 -7.2 46 46 NW 24 39 29.65 1004 10 16 0.00 0.03
1:53 pm 13:53 Cloudy 38 3.3 20 -6.7 48 48 NW 26 43 29.65 1004 10 16 0.00 0.00
2:53 pm 14:53 Cloudy 38 3.3 19 -7.2 46 46 NW 28 44 29.67 1005 10 16 0.00 0.00
3:53 pm 15:53 Cloudy 37 2.8 20 -6.7 50 50 NNW 22 35 29.71 1006 10 16 0.00 0.00
4:53 pm 16:53 Cloudy 35 1.7 21 -6.1 57 57 NW 23 37 29.75 1007 10 16 0.00 0.00
5:53 pm 17:53 Cloudy 33 0.6 21 -6.1 61 61 NNW 10 17 29.79 1009 10 16 0.00 0.00
6:53 pm 18:53 Cloudy 32 0 22 -5.6 66 66 NNW 17 28 29.81 1010 10 16 0.00 0.00
7:53 pm 19:53 Cloudy 31 -0.6 20 -6.7 64 64 NNW 18 30 29.84 1011 10 16 0.00 0.00
8:53 pm 20:53 Mostly Clear 28 -2.2 20 -6.7 72 72 NW 14 22 29.87 1011 10 16 0.00 0.00
9:53 pm 21:53 Mostly Cloudy 27 -2.8 20 -6.7 75 75 NW 14 22 29.87 1011 10 16 0.00 0.00
10:53 pm 22:53 Cloudy 28 -2.2 21 -6.1 75 75 WNW 14 22 29.87 1012 10 16 0.00 0.00
11:53 pm 23:53 Mostly Cloudy 25 -3.9 20 -6.7 81 81 WNW 10 17 29.89 1012 10 16 0.00 0.00

Powered by AerisWeather